Regional Weather Roundup
Issued by NWS

Home | Current Version | Previous Version | Text Only | Print | Product List | Glossary On
Versions: 1 2 3 4 5 6 7 8 9 10 11 12 13 14 15 16 17 18 19 20 21 22 23 24 25 26 27 28 29 30 31 32 33 34 35 36 37 38 39 40 41 42 43 44 45 46 47 48 49 50
000
ASUS43 KFSD 242302
RWRSD

WEATHER ROUNDUP FOR SOUTH DAKOTA
NATIONAL WEATHER SERVICE SIOUX FALLS SD
600 PM CDT WED AUG 24 2016

NOTE: "FAIR" INDICATES FEW OR NO CLOUDS BELOW 12,000 FEET WITH NO
SIGNIFICANT WEATHER AND/OR OBSTRUCTIONS TO VISIBILITY.


SDZ001>005-009-010-012>017-250000-
NORTHWEST AND NORTH CENTRAL SOUTH DAKOTA

CITY           SKY/WX    TMP DP  RH WIND       PRES   REMARKS
BUFFALO          N/A     71  43  36 NW24G38   30.07R
FAITH            N/A     76  44  32 NW16      30.09S
MOBRIDGE       MOSUNNY   80  43  26 NW16G25   30.00S
$$

SDZ012>016-024>037-041>051-057-063-072>074-250000-
SOUTHWEST AND SOUTH CENTRAL SOUTH DAKOTA

CITY           SKY/WX    TMP DP  RH WIND       PRES   REMARKS
RAPID CTY ARPT MOSUNNY   75  45  34 NE13G18   30.13S
PIERRE         PTSUNNY   78  48  34 NW8       30.04F
CUSTER         CLOUDY    65  38  36 NE18G28   30.21S
ELLSWORTH AFB  PTSUNNY   73  45  35 N13G20    30.08F
PHILIP         PTSUNNY   79  47  32 NW3       30.08F
PINE RIDGE     SUNNY     74  43  32 CALM      30.14S
WINNER         FAIR      73  52  47 CALM      30.11R
$$

SDZ004>011-016>023-039-040-250000-
NORTHEAST SOUTH DAKOTA

CITY           SKY/WX    TMP DP  RH WIND       PRES   REMARKS
ABERDEEN       MOSUNNY   78  51  38 W14G22    30.00F
WATERTOWN      CLOUDY    72  52  49 W12       30.04R
BROOKINGS      CLOUDY    70  57  63 NW7       30.03F
$$

SDZ017-020-022-023-036>040-048>070-250000-
SOUTHEAST SOUTH DAKOTA

CITY           SKY/WX    TMP DP  RH WIND       PRES   REMARKS
SIOUX FALLS    CLOUDY    72  59  63 CALM      30.06R
HURON          CLOUDY    75  53  46 NW9       30.03F
CHAMBERLAIN    CLOUDY    73  55  51 CALM      30.07R
MITCHELL       CLOUDY    72  59  63 CALM      30.03F
YANKTON        CLOUDY    73  55  53 SE3       30.06S
$$

ABBREVIATIONS USED IN REMARKS
   TC - TEMPERATURE IN CELSIUS
  WCI - WIND CHILL INDEX
   HX - HEAT INDEX
  VSB - VISIBILITY





USA.gov is the U.S. government's official web portal to all federal, state and local government web resources and services.